Zurück zum Katalog

NOAA 16 DEB

AktivPO
NORAD 41231·DEBRIS·🇺🇸 United States

Gestartet Sep 21, 2000 von Vandenberg Space Force Base

Loading…

Nächste Überflüge (nächste 24 Stunden)

TLE

AktuellSource: Space-Track

Epoche: Sep 13, 2026, 04:32 UTC

1 41231U 00055EL  26256.18895133  .00006679  00000-0  11596-2 0  9992
2 41231  98.9284 158.8641 0036989  61.3177 299.1736 14.68120410563273

Verfolge NOAA 16 DEB in Echtzeit mit AllMySat

Download on the App Store